CTV171 WARR-WIII

Flight info

Callsign CTV171
Flight time N/A
Altitude 32000
Route LASEM T2 KALUT T6 KURUS
Aircraft A320/M-SDE3FGHIRWY/LB1

Departure

Time 2026-05-01 13:24
Airport Juanda International Airport (WARR)

Arrival

Time N/A
Airport Soekarno-Hatta International Airport (WIII)
Time Latitude Longitude Altitude Speed Heading
2026-05-01 12:50 -7.37626 112.79709 9 ft 0 kts
2026-05-01 13:11 -7.37628 112.79709 9 ft 3 kts
2026-05-01 13:12 -7.37648 112.79706 10 ft 4 kts
2026-05-01 13:12 -7.37674 112.79701 9 ft 4 kts
2026-05-01 13:12 -7.37699 112.79694 9 ft 4 kts 33°
2026-05-01 13:12 -7.37715 112.79676 9 ft 4 kts 77°
2026-05-01 13:13 -7.37715 112.79650 9 ft 4 kts 107°
2026-05-01 13:13 -7.37706 112.79624 9 ft 4 kts 104°
2026-05-01 13:13 -7.37705 112.79618 9 ft 1 kts 99°
2026-05-01 13:16 -7.37707 112.79629 9 ft 4 kts 99°
2026-05-01 13:16 -7.37711 112.79658 9 ft 3 kts 99°
2026-05-01 13:16 -7.37717 112.79692 9 ft 7 kts 99°
2026-05-01 13:17 -7.37865 112.79796 9 ft 14 kts 189°
2026-05-01 13:17 -7.37961 112.79771 9 ft 14 kts 219°
2026-05-01 13:18 -7.37945 112.79538 9 ft 20 kts 279°
2026-05-01 13:18 -7.37923 112.79396 9 ft 21 kts 278°
2026-05-01 13:18 -7.37898 112.79241 9 ft 23 kts 279°
2026-05-01 13:18 -7.37871 112.79073 9 ft 24 kts 279°
2026-05-01 13:19 -7.37846 112.78923 9 ft 23 kts 279°
2026-05-01 13:19 -7.37820 112.78764 10 ft 24 kts 279°
2026-05-01 13:19 -7.37771 112.78455 9 ft 24 kts 280°
2026-05-01 13:20 -7.37747 112.78305 9 ft 20 kts 279°
2026-05-01 13:20 -7.37724 112.78165 9 ft 19 kts 279°
2026-05-01 13:20 -7.37709 112.78073 9 ft 21 kts 279°
2026-05-01 13:21 -7.37662 112.77786 9 ft 21 kts 279°
2026-05-01 13:21 -7.37640 112.77653 9 ft 19 kts 279°
2026-05-01 13:21 -7.37622 112.77537 9 ft 17 kts 278°
2026-05-01 13:21 -7.37617 112.77412 9 ft 11 kts 245°
2026-05-01 13:22 -7.37654 112.77384 10 ft 10 kts 191°
2026-05-01 13:22 -7.37725 112.77371 9 ft 9 kts 189°
2026-05-01 13:22 -7.37772 112.77395 10 ft 8 kts 120°
2026-05-01 13:22 -7.37780 112.77426 9 ft 0 kts 100°
2026-05-01 13:23 -7.37781 112.77431 9 ft 5 kts 100°
2026-05-01 13:23 -7.37827 112.77720 9 ft 84 kts 99°
2026-05-01 13:23 -7.37961 112.78552 9 ft 153 kts 98°
2026-05-01 13:24 -7.38151 112.79754 264 ft 189 kts 99°
2026-05-01 13:24 -7.38376 112.81161 724 ft 218 kts 100°
2026-05-01 13:24 -7.38643 112.82719 1509 ft 227 kts 100°
2026-05-01 13:25 -7.39195 112.85866 3036 ft 234 kts 100°
2026-05-01 13:25 -7.39485 112.87501 3770 ft 239 kts 100°
2026-05-01 13:25 -7.39781 112.89158 4624 ft 242 kts 101°
2026-05-01 13:25 -7.40078 112.90832 5464 ft 244 kts 101°
2026-05-01 13:26 -7.40374 112.92523 6272 ft 247 kts 101°
2026-05-01 13:26 -7.40673 112.94235 7029 ft 250 kts 101°
2026-05-01 13:26 -7.40974 112.95970 7666 ft 253 kts 100°
2026-05-01 13:26 -7.41279 112.97731 8307 ft 256 kts 101°
2026-05-01 13:27 -7.41543 112.99515 8950 ft 259 kts 91°
2026-05-01 13:27 -7.41223 113.01294 9577 ft 262 kts 66°
2026-05-01 13:27 -7.38515 113.03624 10740 ft 269 kts 12°
2026-05-01 13:28 -7.34968 113.02800 11860 ft 274 kts 318°
2026-05-01 13:28 -7.33842 113.01264 12399 ft 276 kts 290°
2026-05-01 13:29 -7.33061 112.97428 13414 ft 284 kts 280°
2026-05-01 13:29 -7.32380 112.93463 14484 ft 290 kts 280°
2026-05-01 13:30 -7.30051 112.85620 16450 ft 299 kts 297°
2026-05-01 13:31 -7.28179 112.81840 17370 ft 304 kts 297°
2026-05-01 13:31 -7.25117 112.76194 18723 ft 309 kts 300°
2026-05-01 13:32 -7.23007 112.72398 19626 ft 312 kts 300°
2026-05-01 13:33 -7.19810 112.66691 20951 ft 312 kts 301°
2026-05-01 13:33 -7.17610 112.62887 21671 ft 317 kts 300°
2026-05-01 13:34 -7.15429 112.59002 22410 ft 320 kts 301°
2026-05-01 13:34 -7.13112 112.55141 23130 ft 323 kts 302°
2026-05-01 13:35 -7.10759 112.51278 23841 ft 325 kts 302°
2026-05-01 13:35 -7.09555 112.49301 24108 ft 329 kts 302°
2026-05-01 13:35 -7.07089 112.45261 24362 ft 350 kts 302°
2026-05-01 13:36 -7.05793 112.43143 24486 ft 361 kts 302°
2026-05-01 13:36 -7.04456 112.40960 24613 ft 372 kts 302°
2026-05-01 13:36 -7.01665 112.36411 24863 ft 392 kts 302°
2026-05-01 13:37 -7.00212 112.34054 24988 ft 401 kts 302°
2026-05-01 13:37 -6.98723 112.31644 25113 ft 410 kts 302°
2026-05-01 13:37 -6.97201 112.29184 25238 ft 418 kts 302°
2026-05-01 13:37 -6.95651 112.26677 25350 ft 425 kts 302°
2026-05-01 13:38 -6.92482 112.21540 25609 ft 438 kts 302°
2026-05-01 13:38 -6.90865 112.18921 25738 ft 444 kts 302°
2026-05-01 13:38 -6.89225 112.16268 25865 ft 449 kts 302°
2026-05-01 13:39 -6.87568 112.13586 25989 ft 453 kts 302°
2026-05-01 13:39 -6.85895 112.10881 26114 ft 457 kts 302°
2026-05-01 13:39 -6.84213 112.08149 26239 ft 461 kts 301°
2026-05-01 13:39 -6.82755 112.05267 26361 ft 465 kts 296°
2026-05-01 13:40 -6.81378 112.02317 26487 ft 468 kts 295°
2026-05-01 13:40 -6.79994 111.99337 26615 ft 471 kts 296°
2026-05-01 13:40 -6.78588 111.96352 26735 ft 473 kts 296°
2026-05-01 13:40 -6.77159 111.93359 26862 ft 476 kts 296°
2026-05-01 13:41 -6.75712 111.90361 27008 ft 476 kts 296°
2026-05-01 13:41 -6.74265 111.87371 27323 ft 474 kts 296°
2026-05-01 13:41 -6.72827 111.84395 27646 ft 472 kts 296°
2026-05-01 13:41 -6.71402 111.81429 27968 ft 470 kts 296°
2026-05-01 13:42 -6.69986 111.78476 28295 ft 468 kts 296°
2026-05-01 13:42 -6.68573 111.75536 28616 ft 466 kts 296°
2026-05-01 13:42 -6.67165 111.72612 28938 ft 464 kts 296°
2026-05-01 13:42 -6.65759 111.69690 29267 ft 463 kts 296°
2026-05-01 13:43 -6.64363 111.66784 29586 ft 461 kts 296°
2026-05-01 13:43 -6.62970 111.63883 29911 ft 460 kts 296°
2026-05-01 13:43 -6.61577 111.60995 30236 ft 458 kts 296°
2026-05-01 13:43 -6.60152 111.58133 30560 ft 457 kts 297°
2026-05-01 13:44 -6.58692 111.55302 30881 ft 455 kts 298°
2026-05-01 13:44 -6.57216 111.52496 31211 ft 454 kts 298°
2026-05-01 13:44 -6.55735 111.49696 31537 ft 452 kts 298°
2026-05-01 13:44 -6.54266 111.46909 31820 ft 451 kts 298°
2026-05-01 13:45 -6.52795 111.44104 31891 ft 456 kts 298°
2026-05-01 13:45 -6.49809 111.38381 31897 ft 467 kts 298°
2026-05-01 13:46 -6.46794 111.32565 31897 ft 469 kts 298°
2026-05-01 13:46 -6.43773 111.26745 31897 ft 469 kts 298°
2026-05-01 13:47 -6.40769 111.20967 31896 ft 470 kts 298°
2026-05-01 13:47 -6.37740 111.15148 31898 ft 469 kts 298°
2026-05-01 13:48 -6.34704 111.09340 31894 ft 469 kts 298°
2026-05-01 13:48 -6.31603 111.03556 31896 ft 470 kts 299°
2026-05-01 13:49 -6.28480 110.97782 31898 ft 470 kts 299°
2026-05-01 13:49 -6.25364 110.92010 31897 ft 469 kts 298°
2026-05-01 13:50 -6.22267 110.86239 31886 ft 469 kts 298°
2026-05-01 13:50 -6.19173 110.80464 31887 ft 470 kts 298°
2026-05-01 13:51 -6.16069 110.74694 31887 ft 469 kts 299°
2026-05-01 13:51 -6.12962 110.68922 31896 ft 469 kts 298°
2026-05-01 13:52 -6.09856 110.63154 31898 ft 469 kts 299°
2026-05-01 13:52 -6.06753 110.57389 31897 ft 469 kts 299°
2026-05-01 13:53 -6.03647 110.51619 31897 ft 469 kts 298°
2026-05-01 13:53 -5.98997 110.42969 31897 ft 469 kts 298°
2026-05-01 13:54 -5.96784 110.36825 31898 ft 471 kts 279°
2026-05-01 13:54 -5.96503 110.30260 31896 ft 471 kts 270°
2026-05-01 13:55 -5.96513 110.23644 31897 ft 470 kts 270°
2026-05-01 13:55 -5.96506 110.17121 31897 ft 470 kts 270°
2026-05-01 13:56 -5.96498 110.10533 31897 ft 470 kts 270°
2026-05-01 13:56 -5.96498 110.03967 31897 ft 470 kts 270°